Location: �terpigny
(49.8910°N, 2.9249°E)
Time: 17:32:08
(UTC+00:00)

NOSS 2-3 (D) - Pass Details

Date: 24 October 2021
Orbit: 538 x 1672 km, 63.3° (Epoch: 25 November)

Event Time Altitude Azimuth Distance (km) Brightness Sun altitude
Rises 18:09:21 0° 212° (SSW) 2,689 7.3 -15.1°
Reaches altitude 10° 18:11:25 10° 209° (SSW) 1,831 6.4 -15.4°
Maximum altitude 18:15:22 65° 128° (SE) 666 3.5 -16.1°
Enters shadow 18:18:18 22° 51° (NE) 1,460 5.0 -16.5°
